THOR ABLESTAR DEB, 548

Orbit data source: Space-Track

THOR ABLESTAR DEB, 548 is space debris in LEO originally from a launch on Thu, 29 Jun 1961 UTC launched from the Air Force Eastern Test Range (AFETR). Debris objects in space refer to the collection of defunct objects orbiting the Earth. Examples of debris include non-operational satellites, rocket bodies, and fragments generated from explosions, collisions, or faulty payload assembly.

Loading next visibility...
Identifier
548, 1961-015GH
Orbit
LEO
Country
Flag of USUS
Related business
Manufacturer
Unknown
Mission
Spacecraft
Bus & Motor
Unknown
Mass
Unknown
Launch date (UTC)
1961-06-29 (65 years ago)
Launch vehicle
Unknown
Launch site
Air Force Eastern Test Range (AFETR)
Object type
Payload
Rocket body
Debris
Shape & HBR
Unknown shape, 0.1 m
Radar Cross Section
Small (<0.1 m²)

Expand to show TLE details & history
Last TLE update: 21 hours ago

TLE from 21 hours ago
0 THOR ABLESTAR DEB
1   548U 61015GH  26033.19674912  .00002234  00000-0  31870-3 0  9996
2   548  66.6722 327.0074 0102341 222.8919 136.4189 14.75383714383903
Epoch: 2026-02-02T04:43Z
TLE epoch observation values (Epoch: 2026-02-02T04:43:19.123Z)
Latitude
-0.00005°
Longitude
123.7822°
Altitude
698.493 km
Speed
7.479 km/s
True Right ascension
21h 48m 01s
True Declination
0° 00' 00"
Sunlit
Object was in daylight at epoch
Visualization orbit readout
Latitude
Unknown
Longitude
Unknown
Altitude
Unknown
Speed
Unknown
Apparent Right ascension
Unknown
Apparent Declination
Unknown
Sunlit
N/A
Visualization observer readout
Local Sidereal Time
03:34:44
Azimuth
Unknown
Elevation
Unknown
Doppler factor
Unknown
Orbital elements
Apogee altitude
714.125 km
Perigee altitude
570.429 km
Semi-major axis
7,020.414 km
Eccentricity
0.01023
Inclination
66.6722°
RAAN
327.0074°
Arg. of periapsis
222.8919°
True anomaly
137.21991°
Mean anomaly
136.4189°
Eccentric anomaly
136.82015°
Mean motion
3.68977 °/min
Orbital period
97.57 mins
BSTAR
0.0003187

Documentation

Showing up to 5 results
|